Location: *
(28.3744°N, 81.5492°W)
Time: 03:24:13
(UTC+00:00)

Cosmos 1536 Rocket - Pass Details

Date: 15 June 2025
Orbit: 600 x 625 km, 82.5° (Epoch: 11 July)

Event Time Altitude Azimuth Distance (km) Brightness Sun altitude
Exits shadow 08:09:53 39° 121° (ESE) 904 4.4 -25.1°
Maximum altitude 08:10:37 43° 92° (E) 846 4.4 -25.0°
Drops below altitude 10° 08:14:41 10° 21° (NNE) 1,943 7.0 -24.4°
Sets 08:16:58 0° 15° (NNE) 2,848 8.0 -24.0°
